Orbital Elements at Epoch 2459200.5 (2020-Dec-17.0) TDB
Reference: JPL 20 (heliocentric ecliptic J2000)
Element | Value | Uncertainty (1-sigma) | Units |
e | .07705347014353846 | 4.9882e-08 | |
a | 3.097554447839794 | 2.5124e-08 | au |
q | 2.858877128675186 | 1.5489e-07 | au |
i | 18.06164751885765 | 4.1802e-06 | deg |
node | 152.6984698748371 | 1.899e-05 | deg |
peri | 71.89507255223793 | 4.2097e-05 | deg |
M | 58.59510156006137 | 3.4794e-05 | deg |
tp | 2458876.395052268030 (2020-Jan-27.89505227) | 0.00019379 | TDB |
period | 1991.254867335825 5.45 | 2.4226e-05 6.633e-08 | d yr |
n | .1807905185345046 | 2.1996e-09 | deg/d |
Q | 3.336231767004402 | 2.706e-08 | au |
|
| | Orbit Determination Parameters
Additional Information
|